Weather History for Bloomington, IN

Change the Weather History Date:

Tuesday, December 6, 2011

  Actual Average Record
Temperature  
Mean Temperature 35 °F 35 °F  
Max Temperature 37 °F 43 °F 72 °F (1998)
Min Temperature 33 °F 26 °F 3 °F (2002)
Degree Days  
Heating Degree Days 30 30  
Month to date heating degree days 144 175  
Since 1 July heating degree days 1066 1231  
Cooling Degree Days 0 0  
Month to date cooling degree days 0 0  
Year to date cooling degree days 1170 927  
Moisture  
Dew Point 32 °F    
Average Humidity 89    
Maximum Humidity 96    
Minimum Humidity 82    
Precipitation  
Precipitation 0.00 in 0.11 in 0.42 in (2013)
Month to date precipitation 1.28 0.63  
Year to date precipitation 52.14 44.64  
Sea Level Pressure  
Sea Level Pressure 30.14 in    
Wind  
Wind Speed 9 mph (NNE)    
Max Wind Speed 16 mph    
Max Gust Speed 22 mph    
Visibility 7 miles    
Events      
T = Trace of Precipitation, MM = Missing Value Source: NWS Daily Summary

Daily Weather History Graph

Daily Weather History Graph

Search for Another Location

Airport:

Trip Planner

Search our weather history database for the weather conditions in past years. The results will help you decide how hot, cold, wet, or windy it might be!

Date:

Astronomy

Dec. 06, 2011 Rise Set
Actual Time 7:51 AM EST 5:23 PM EST
Civil Twilight 7:21 AM EST 5:53 PM EST
Nautical Twilight 6:48 AM EST 6:26 PM EST
Astronomical Twilight 6:15 AM EST 6:59 PM EST
Moon 2:49 PM EST (12/6) 4:10 AM EST (12/6)
Length of Visible Light 10h 31m
Length of Day
9h 32m
Waxing Gibbous, 86% of the Moon is Illuminated
Dec 6
Waxing Gibbous
Dec 10
Full
Dec 17
Last Quarter
Dec 24
New
Jan 1
First Quarter

Hourly Weather History & Observations

Time (EST) Temp. Windchill Dew Point Humidity Pressure Visibility Wind Dir Wind Speed Gust Speed Precip Events Conditions
12:53 AM 36.0 °F 28.5 °F 33.1 °F 89% 30.15 in 10.0 mi NNE 10.4 mph - N/A   Overcast
1:53 AM 36.0 °F 28.5 °F 33.1 °F 89% 30.15 in 10.0 mi North 10.4 mph - N/A   Overcast
2:53 AM 36.0 °F 27.1 °F 33.1 °F 89% 30.14 in 10.0 mi NNE 13.8 mph - N/A   Overcast
3:53 AM 36.0 °F 27.5 °F 32.0 °F 86% 30.13 in 10.0 mi NE 12.7 mph 21.9 mph N/A   Overcast
4:53 AM 35.1 °F 27.4 °F 33.1 °F 92% 30.13 in 10.0 mi NNE 10.4 mph - N/A   Overcast
5:53 AM 35.1 °F 27.4 °F 32.0 °F 89% 30.15 in 10.0 mi NNE 10.4 mph - N/A   Overcast
6:53 AM 35.1 °F 26.9 °F 33.1 °F 92% 30.16 in 10.0 mi NNE 11.5 mph - N/A   Overcast
7:53 AM 35.1 °F 25.2 °F 32.0 °F 89% 30.16 in 8.0 mi NNE 16.1 mph 21.9 mph N/A   Overcast
8:10 AM 35.6 °F 28.0 °F 32.0 °F 87% 30.14 in 6.0 mi NNE 10.4 mph - N/A   Overcast
8:53 AM 35.1 °F 26.9 °F 32.0 °F 89% 30.17 in 10.0 mi NNE 11.5 mph - N/A   Overcast
9:53 AM 35.1 °F 26.9 °F 32.0 °F 89% 30.17 in 7.0 mi NE 11.5 mph - N/A   Overcast
10:09 AM 35.6 °F 27.1 °F 32.0 °F 87% 30.15 in 5.0 mi NNE 12.7 mph - N/A   Overcast
10:41 AM 35.6 °F 29.2 °F 32.0 °F 87% 30.16 in 6.0 mi NE 8.1 mph - N/A   Overcast
10:53 AM 35.1 °F 27.4 °F 32.0 °F 89% 30.18 in 5.0 mi NE 10.4 mph - N/A   Overcast
11:15 AM 35.6 °F 27.5 °F 33.8 °F 93% 30.16 in 2.5 mi NNE 11.5 mph - N/A   Overcast
11:23 AM 35.6 °F 27.5 °F 33.8 °F 93% 30.15 in 3.0 mi NE 11.5 mph - N/A   Overcast
11:31 AM 35.6 °F 28.0 °F 33.8 °F 93% 30.15 in 2.5 mi NNE 10.4 mph - N/A   Overcast
11:53 AM 34.0 °F 25.5 °F 32.0 °F 92% 30.17 in 2.5 mi NNE 11.5 mph - N/A   Overcast
12:02 PM 33.8 °F 26.4 °F 32.0 °F 93% 30.14 in 3.0 mi NNE 9.2 mph - N/A   Overcast
12:53 PM 35.1 °F 27.9 °F 32.0 °F 89% 30.14 in 10.0 mi NNE 9.2 mph - N/A   Overcast
1:07 PM 33.8 °F 25.8 °F 30.2 °F 87% 30.12 in 6.0 mi North 10.4 mph - N/A   Overcast
1:41 PM 33.8 °F 26.4 °F 32.0 °F 93% 30.13 in 2.5 mi NNE 9.2 mph - N/A   Overcast
1:48 PM 33.8 °F 26.4 °F 32.0 °F 93% 30.13 in 3.0 mi NNE 9.2 mph - N/A   Overcast
2:02 PM 33.8 °F 26.4 °F 32.0 °F 93% 30.11 in 7.0 mi NNE 9.2 mph - N/A   Overcast
2:53 PM 35.1 °F 28.6 °F 30.9 °F 85% 30.11 in 10.0 mi NE 8.1 mph - N/A   Overcast
3:53 PM 35.1 °F 31.0 °F 30.9 °F 85% 30.13 in 10.0 mi North 4.6 mph - N/A   Overcast
4:28 PM 33.8 °F 30.8 °F 32.0 °F 93% 30.11 in 2.5 mi NNW 3.5 mph - N/A   Overcast
4:37 PM 33.8 °F 27.7 °F 32.0 °F 93% 30.11 in 1.8 mi North 6.9 mph - N/A   Overcast
4:53 PM 34.0 °F 28.8 °F 32.0 °F 92% 30.13 in 2.5 mi North 5.8 mph - N/A   Overcast
5:09 PM 33.8 °F 28.6 °F 32.0 °F 93% 30.11 in 2.5 mi NNE 5.8 mph - N/A   Overcast
5:21 PM 33.8 °F 28.6 °F 32.0 °F 93% 30.11 in 4.0 mi North 5.8 mph - N/A   Overcast
5:53 PM 34.0 °F 28.0 °F 30.9 °F 89% 30.13 in 3.0 mi NE 6.9 mph - N/A   Overcast
6:17 PM 33.8 °F 27.7 °F 32.0 °F 93% 30.10 in 10.0 mi NNE 6.9 mph - N/A   Overcast
6:19 PM 33.8 °F 28.6 °F 32.0 °F 93% 30.09 in 10.0 mi North 5.8 mph - N/A   Overcast
6:53 PM 33.1 °F 26.9 °F 30.9 °F 92% 30.11 in 10.0 mi NNE 6.9 mph - N/A   Overcast
7:53 PM 33.1 °F 25.5 °F 30.9 °F 92% 30.13 in 10.0 mi North 9.2 mph - N/A   Overcast
8:26 PM 33.8 °F 27.7 °F 30.2 °F 87% 30.12 in 10.0 mi NNE 6.9 mph - N/A   Overcast
8:53 PM 33.1 °F 26.1 °F 30.0 °F 89% 30.14 in 10.0 mi North 8.1 mph - N/A   Overcast
9:53 PM 33.1 °F 28.7 °F 28.9 °F 85% 30.14 in 10.0 mi North 4.6 mph - N/A   Overcast
10:53 PM 33.1 °F 27.7 °F 28.9 °F 85% 30.13 in 10.0 mi North 5.8 mph - N/A   Overcast
11:53 PM 33.1 °F 28.7 °F 28.0 °F 82% 30.12 in 10.0 mi NNW 4.6 mph - N/A   Overcast